Location: Santa Clara
(37.3540°N, 121.9540°W)
Time: 15:31:33
(UTC-08:00)

ISS - Visible Passes

Search period start: 24 January 2026 00:00
Search period end: 03 February 2026 00:00
Orbit: 413 x 423 km, 51.6° (Epoch: 23 January)

Date Brightness Start Highest point End Pass type
(mag) Time Alt. Az. Time Alt. Az. Time Alt. Az.
24 Jan -1.3 18:16:58 10° N 18:17:18 10° NNE 18:17:37 10° NNE visible
25 Jan -1.7 19:03:50 10° NNW 19:05:14 19° N 19:05:14 19° N visible
26 Jan -1.9 18:16:04 10° NNW 18:18:23 17° NNE 18:19:31 15° NE visible
26 Jan -0.6 19:52:07 10° NW 19:52:28 12° NW 19:52:28 12° NW visible
27 Jan -3.5 19:04:00 10° NW 19:06:53 55° N 19:06:53 55° N visible
28 Jan -3.1 18:15:59 10° NW 18:19:07 36° NE 18:21:29 15° E visible
28 Jan -0.8 19:53:09 10° W 19:54:28 17° W 19:54:28 17° W visible
29 Jan -2.4 19:04:32 10° WNW 19:07:39 37° SW 19:09:20 21° S visible
30 Jan -3.6 18:16:11 10° NW 18:19:29 73° SW 18:22:49 10° SE visible
31 Jan -0.5 19:06:14 10° WSW 19:07:37 12° SW 19:08:59 10° SSW visible
1 Feb -1.0 18:16:52 10° WNW 18:19:31 22° SW 18:22:09 10° S visible
